EHI
0 0 0 0 0 0 0 0 0 0 0 0 0 0 0 0 0 0 0 0 0 0 0 0 0 0 0 0 0 0 0 0 0 0 0 0 0 0 0 0 0 0 0 0
0 0 0 0 0 0 0 0 0 0 0 0 0 0 0 0 0 0 0 0 0 0 0 0 0 0 0 0 0 0 0 0 0 0 0 0 0 0 0 0 0 0 0 0
0 0 0 0 0 0 0 0 0 0 0 0 0 0 0 0 0 0 0 0 0 0 0 0 0 0 0 0 0 0 0 0 0 0 0 0 0 0 0 0 0 0 0 0
0 0 0 0 0 0 0 0 0 0 0 0 0 0 0 0 0 0 0 0 0 0 0 0 0 0 0 0 0 0 0 0 0 0 0 0 0 0 0 0 0 0 0 0
0 0 0 0 0 0 0 0 0 0 0 0 0 0 0 0 0 0 0 0 0 0 0 0 0 0 0 0 0 0 0 0 0 0 0 0 0 0 0 0 0 0 0 0
0 0 0 0 0 0 0 0 0 0 0 0 0 0 0 0 0 0 0 0 0 0 0 0 0 0 0 0 0 0 0 0 0 0 0 0 0 0 0 0 0 0 0 0
0 0 0 0 0 0 0 0 0 0 0 0 0 0 0 0 0 0 0 0 0 0 0 0 0 0 0 0 0 0 0 0 0 0 0 0 0 0 0 0 0 0 0 0
0 0 0 0 0 0 0 0 0 0 0 0 0 0 0 0 0 0 0 0 0 0 0 0 0 0 0 0 0 0 0 0 0 0 0 0 0 0 0 0 0 0 0 0
0 0 0 0 0 0 0 0 0 0 0 0 0 0 0 0 0 0 0 0 0 0 0 0 0 0 0 0 0 0 0 0 0 0 0 0 0 0 0 0 0 0 0 0
0 0 0 0 0 0 0 0 0 0 0 0 0 0 0 0 0 0 0 0 0 0 0 0 0 0 0 0 0 0 0 0 0 0 0 0 0 0 0 0 0 0 0 0
0 0 0 0 0 0 0 0 0 0 0 0 0 0 0 0 0 0 0 0 0 0 0 0 0 0 0 0 0 0 0 0 0 0 0 0 0 0 0 0 0 0 0 0
0 0 0 0 0 0 0 0 0 0 0 0 0 0 0 0 0 0 0 0 0 0 0 0 0 0 0 0 0 0 0 0 0 0 0 0 0 0 0 0 0 0 0 0
0 0 0 0 0 0 0 0 0 0 0 0 0 0 0 0 0 0 0 0 0 0 0 0 0 0 0 0 0 0 0 0 0 0 0 0 0 0 0 0 0 0 0 0
0 0 0 0 0 0 0 0 0 0 0 0 0 0 0 0 0 0 0 0 0 0 0 0 0 0 0 0 0 0 0 0 0 0 0 0 0 0 0 0 0 0 0 0
0 0 0 0 0 0 0 0 0 0 0 0 0 0 0 0 0 0 0 0 0 0 0 0 0 0 0 0 0 0 0 0 0 0 0 0 0 0 0 0 0 0 0 0
0 0 0 0 0 0 0 0 0 0 0 0 0 0 0 0 0 0 0 0 0 0 0 0 0 0 0 0 0 0 0 0 0 0 0 0 0 0 0 0 0 0 0 0
0 0 0 0 0 0 0 0 0 0 0 0 0 0 0 0 0 0 0 0 0 0 0 0 0 0 0 0 0 0 0 0 0 0 0 0 0 0 0 0 0 0 0 0
0 0 0 0 0 0 0 0 0 0 0 0 0 0 0 0 0 0 0 0 0 0 0 0 0 0 0 0 0 0 0 0 0 0 0 0 0 0 0 0 0 0 0 0
0 0 0 0 0 0 0 0 0 0 0 0 0 0 0 0 0 0 0 0 0 0 0 0 0 0 0 0 0 0 0 0 0 0 0 0 0 0 0 0 0 0 0 0
0 0 0 0 0 0 0 0 0 0 0 0 0 0 0 0 0 0 0 0 0 0 0 0 0 0 0 0 0 0 0 0 0 0 0 0 0 0 0 0 0 0 0 0
0 0 0 0 0 0 0 0 0 0 0 0 0 0 0 0 0 0 0 0 0 0 0 0 0 0 0 0 0 0 0 0 0 0 0 0 0 0 0 0 0 0 0 0
0 0 0 0 0 0 0 0 0 0 0 0 0 0 0 0 0 0 0 0 0 0 0 0 0 0 0 0 0 0 0 0 0 0 0 0 0 0 0 0 0 0 0 0
0 0 0 0 0 0 0 0 0 0 0 0 0 0 0 0 0 0 0 0 0 0 0 0 0 0 0 0 0 0 0 0 0 0 0 0 0 0 0 0 0 0 0 0
0 0 0 0 0 0 0 0 0 0 0 0 0 0 0 0 0 0 0 0 0 0 0 0 0 0 0 0 0 0 0 0 0 0 0 0 0 0 0 0 0 0 0 0
0 0 0 0 0 0 0 0 0 0 0 0 0 0 0 0 0 0 0 0 0 0 0 0 0 0 0 0 0 0 0 0 0 0 0 0 0 0 0 0 0 0 0 0
0 0 0 0 0 0 0 0 0 0 0 0 0 0 0 0 0 0 0 0 0 0 0 0 0 0 0 0 0 0 0 0 0 0 0 0 0 0 0 0 0 0 0 0
Wind_Speed
3 1 4 7 8 6 4 5 8 8 5 4 6 9 11 8 4 4 4 4 4 5 5 3 3 3 3 3 5 6 7 7 6 4 5 5 5 5 4 4 7 8 8 9
1 5 8 6 6 6 6 6 7 7 3 3 4 7 9 6 3 2 2 2 2 2 2 1 0 1 2 3 4 5 6 6 6 5 4 4 5 5 5 4 6 7 7 8
4 5 4 4 4 5 6 6 5 5 6 3 3 6 6 5 5 5 4 2 2 1 2 2 0 0 1 2 3 3 4 5 5 5 3 3 3 3 3 4 5 6 8 8
4 5 4 3 4 4 5 4 5 5 3 3 2 3 7 6 7 8 7 6 5 4 3 2 2 2 1 0 1 2 3 3 4 4 4 6 5 5 5 4 4 5 6 7
3 2 1 3 4 3 4 4 3 4 2 2 2 0 6 6 6 8 8 7 6 5 5 4 3 2 2 1 1 1 2 3 3 3 3 5 4 3 3 3 4 4 5 6
4 2 1 3 3 3 3 1 2 1 1 2 3 1 4 5 6 7 7 7 7 6 6 6 5 4 4 3 3 2 2 2 3 3 2 3 4 4 4 4 4 4 3 4
4 2 2 1 3 3 2 2 3 4 3 2 2 1 2 4 5 5 6 7 7 7 7 7 7 6 5 5 4 4 4 3 3 2 1 2 3 4 4 4 4 3 2 2
2 4 3 1 1 1 2 1 2 1 0 2 4 1 2 4 4 5 6 6 8 9 8 8 7 6 6 5 5 4 4 4 4 3 1 1 1 1 1 2 3 3 3 3
0 3 3 2 2 1 1 1 1 2 1 1 2 2 2 5 7 7 8 9 9 8 8 8 8 7 6 6 5 5 5 4 3 3 3 3 3 2 1 1 0 1 2 2
1 2 4 3 2 2 1 1 2 2 2 1 2 2 2 4 5 6 7 7 7 7 8 8 7 7 6 5 5 5 5 4 3 3 3 3 2 2 1 1 1 1 2 2
1 0 4 3 2 2 3 2 1 1 2 3 1 2 1 1 1 2 4 5 5 6 6 6 6 6 6 6 5 5 5 5 4 4 3 3 2 2 1 1 1 1 2 2
1 2 1 3 3 2 1 0 1 2 0 1 2 3 2 0 1 2 3 4 5 5 5 6 6 7 7 8 7 6 5 5 4 3 3 3 3 3 3 3 3 3 2 2
1 3 2 5 5 4 2 2 1 2 2 2 2 3 2 2 2 2 2 3 4 5 6 7 8 8 8 8 7 7 7 5 4 4 4 5 5 5 4 3 3 3 3 2
3 2 3 3 3 2 3 3 1 3 2 1 3 3 1 0 1 2 2 2 3 4 5 6 7 7 8 8 8 8 7 7 6 5 5 6 5 5 4 4 4 3 3 3
3 1 1 2 3 2 2 3 1 2 4 4 4 4 5 4 2 1 1 2 3 4 5 6 6 6 7 8 8 7 7 7 7 7 7 6 5 5 5 5 5 5 4 4
2 1 1 3 3 2 2 3 2 2 2 3 2 3 3 2 2 2 1 2 2 3 3 4 5 6 7 7 7 7 7 7 7 7 7 6 7 7 6 6 6 6 5 5
1 1 1 3 4 4 5 5 4 3 3 5 5 5 4 3 3 3 2 1 1 1 2 3 4 5 5 6 6 6 6 6 7 7 7 7 6 7 7 7 7 6 6 6
2 2 1 1 4 3 6 3 3 4 3 3 3 4 5 5 3 2 2 2 1 1 1 2 3 4 4 5 5 5 5 6 6 6 7 7 6 6 6 6 6 6 5 5
2 3 2 1 1 6 6 3 3 4 3 4 5 5 4 4 3 1 1 2 2 1 1 1 2 2 3 4 5 5 5 5 6 6 6 6 6 6 6 6 6 5 5 5
2 3 3 2 1 5 5 2 2 3 4 4 7 7 6 5 2 4 2 1 1 1 1 1 2 2 3 4 3 4 5 5 5 6 6 6 6 5 5 5 5 5 4 5
1 1 3 3 4 9 6 2 4 3 7 4 7 8 8 7 6 3 4 3 2 2 1 1 1 2 2 3 3 3 4 4 4 5 5 5 5 5 5 5 4 5 5 5
6 5 5 4 5 9 4 5 6 8 2 3 5 6 6 5 4 4 5 4 3 2 1 1 1 1 2 3 3 3 4 5 5 5 5 5 5 5 5 5 5 5 5 5
6 8 6 9 9 5 5 7 5 4 4 4 5 5 7 6 5 5 4 4 3 3 2 1 0 1 2 2 2 2 4 4 4 4 5 5 5 5 5 4 5 5 4 4
5 4 4 5 8 6 6 5 3 4 5 4 5 6 7 6 6 5 5 4 3 3 2 1 1 1 2 2 2 2 3 3 3 4 4 4 4 5 4 4 3 4 4 5
7 4 4 6 7 4 5 7 7 4 4 4 4 5 7 7 6 6 5 5 4 3 2 2 2 2 2 2 2 3 3 3 3 4 4 4 4 4 4 4 3 4 4 5
7 9 8 9 8 6 7 5 6 6 6 7 6 5 5 6 7 6 5 5 4 4 3 2 2 2 2 2 3 3 3 2 2 3 4 3 3 3 3 4 5 6 6 10
Wind_Direction
178 166 221 221 213 223 240 262 274 274 275 285 281 293 303 313 314 284 274 280 274 267 259 239 233 223 201 175 171 175 176 177 166 169 179 181 187 187 188 191 190 191 192 193
163 244 241 234 232 239 249 270 279 288 297 285 295 309 308 318 326 308 297 291 279 306 335 328 242 203 177 170 172 171 180 182 179 178 182 182 180 183 187 187 190 193 193 195
214 253 256 221 241 252 259 245 258 280 310 295 299 328 348 359 20 20 19 355 351 337 336 322 285 192 136 159 173 179 183 186 188 177 163 173 172 163 177 188 196 199 199 199
246 264 258 251 249 233 271 238 243 284 317 322 357 333 337 357 17 17 12 11 6 1 14 23 36 42 45 182 131 135 169 175 185 169 166 177 188 190 193 188 201 202 203 203
267 288 299 271 264 231 243 258 254 272 284 316 353 97 317 348 10 6 5 8 6 8 20 37 53 68 43 37 85 121 144 142 153 153 165 187 190 189 177 176 196 203 210 210
261 279 271 263 278 244 261 326 312 331 76 360 333 118 328 344 341 352 4 7 13 16 24 34 38 52 53 50 68 79 95 101 106 120 143 172 177 173 175 183 196 205 208 211
331 315 297 289 335 341 30 55 27 16 20 320 339 75 313 328 351 8 11 9 9 18 28 34 34 38 43 47 55 64 68 64 75 90 108 167 181 178 185 189 193 199 203 215
6 326 295 278 221 290 315 127 136 149 236 318 357 16 312 343 10 25 28 24 27 28 31 33 30 30 36 44 46 55 57 54 57 60 40 77 107 158 180 192 193 197 202 208
121 299 293 259 244 164 339 347 183 129 78 27 336 333 335 7 17 23 27 31 31 28 30 29 24 26 30 38 36 40 46 45 42 46 45 45 35 39 47 66 205 214 215 205
184 295 308 314 20 358 180 182 70 94 116 49 326 324 316 341 0 13 22 29 27 25 25 24 22 24 27 31 32 35 34 40 44 42 46 42 29 18 31 43 5 309 267 227
70 81 324 8 22 326 355 22 65 97 134 146 220 288 298 289 6 30 23 27 31 27 23 20 19 21 22 24 31 33 24 28 33 34 37 40 33 23 30 21 339 312 295 265
360 112 323 297 289 258 223 260 131 128 353 116 143 276 334 118 80 74 48 35 31 28 24 22 23 25 27 26 26 28 25 24 21 28 37 38 35 32 28 13 349 338 317 300
41 88 25 348 342 355 353 329 46 121 109 124 147 254 343 48 56 53 53 38 33 27 25 26 24 23 22 20 21 26 25 23 24 33 43 40 32 27 18 2 346 342 331 323
94 93 159 195 242 273 300 316 354 111 126 173 208 207 265 293 72 32 37 35 35 33 28 25 20 17 17 15 18 22 19 18 25 32 39 36 26 18 6 357 350 348 346 342
86 94 269 261 273 262 259 274 280 151 178 181 203 193 217 212 188 159 75 47 41 34 28 23 17 13 13 13 13 16 15 18 25 30 30 24 18 12 9 5 358 360 -0 352
60 112 357 320 311 313 291 275 245 216 190 178 174 237 221 189 135 107 95 77 52 34 22 18 17 16 14 10 8 11 11 12 23 28 21 15 14 11 7 2 360 1 359 352
48 104 53 299 317 352 297 253 204 194 189 173 197 217 168 161 168 179 178 120 81 42 24 19 15 11 7 5 7 10 5 10 20 19 14 11 9 6 359 357 1 358 352 348
143 106 118 318 8 272 255 266 186 180 222 202 192 183 172 173 169 164 159 151 141 61 25 12 9 8 2 2 7 6 11 16 17 13 5 359 358 357 352 352 352 348 344 344
153 142 125 98 307 284 286 248 180 176 257 209 181 177 171 147 98 347 284 162 169 167 103 17 8 9 3 1 2 12 14 12 13 6 357 351 350 348 347 345 343 340 339 335
92 110 124 146 233 249 254 229 158 104 274 224 178 175 171 145 170 243 216 159 137 108 88 56 23 21 14 354 1 19 9 6 0 351 346 346 348 347 344 340 338 334 334 327
129 122 164 190 240 264 253 181 113 170 240 201 176 176 171 182 199 186 154 154 150 136 120 92 59 25 352 347 9 12 3 351 335 336 342 346 347 345 340 340 338 337 337 331
182 178 194 176 213 256 218 149 187 218 220 163 169 174 172 175 150 144 154 160 159 154 152 135 90 4 346 354 9 359 344 331 336 343 345 343 341 341 344 342 340 341 338 336
201 193 190 197 218 241 203 206 216 182 181 185 175 177 163 160 169 166 170 173 176 172 172 160 131 341 338 347 1 338 320 327 337 342 339 335 335 338 338 338 336 336 338 337
259 195 198 251 257 247 236 236 231 198 195 192 176 168 164 171 176 176 176 180 184 189 189 184 170 293 314 321 319 301 312 327 338 334 328 328 331 331 332 332 328 332 334 333
233 195 213 253 267 276 256 226 217 208 185 171 173 178 177 170 178 184 186 189 190 194 197 183 194 239 274 295 304 310 320 330 329 323 320 321 321 320 325 327 324 325 317 321
204 190 194 229 224 205 235 220 190 183 193 186 177 180 184 181 186 185 192 194 191 193 189 192 213 240 266 285 296 306 314 319 317 316 316 313 315 319 322 324 325 327 325 326